Powrót do katalogu

CZ-2D DEB

AktywnyPO
NORAD 44605·DEBRIS·🇨🇳 China

Wystrzelony Nov 11, 2016 z Jiuquan Satellite Launch Center

Loading…

Następne Przeloty (najbliższe 24 godziny)

TLE

Starzejące sięSource: Space-Track

Epoka: Sep 9, 2026, 02:43 UTC

1 44605U 16068E   26252.11358216  .00000234  00000-0  18094-3 0  9998
2 44605  98.4099 306.9215 0228566  23.9199 337.2384 13.89307344492803

Śledź CZ-2D DEB w czasie rzeczywistym z AllMySat

Download on the App Store